KUIPER-00136

导读

KUIPER-00165是美国亚马逊公司(现已将项目更名为Amazon Leo)旗下低轨卫星互联网星座项目中的一颗卫星,于2025年9月25日发射升空。该卫星属于项目大规模部署阶段发射的卫星,旨在为全球网络覆盖不足地区提供高速低延迟互联网接入,同时可整合AWS云服务,支撑物联网、边缘计算等应用,助力完成3232颗卫星的组网目标。

基本信息
目录编号:
65778
目录名称:
KUIPER-00165
国际标识:
2025-217S
轨道中心:
EARTH
卫星名称:
KUIPER-00165
卫星全名:
KUIPER-00136
卫星状态:
在轨 (已飞行352 天)
发射日期:
2025-09-25 UTC
国别 :
美国 (US)
星等 :
--
该卫星已列入 空间交会检测服务 Space Conjunction Data Service (SCDS) ,当前飞行风险评估等级: 无高风险
轨道信息
数据来源 国际轨道数据
星历时间: 2026-09-11T19:59:32+0800
15小时前
查看轨道信息
半长轴: 7007.641km
偏心率: 0.0000434
轨道倾角: 51.900°
近地点辐角 42.255°
升交点赤经 293.955°
平近点角 317.844°
近地点: 629.199km
远地点: 629.809km
周期: 97.301分钟
每日圈数: 14.799433
详细信息
使用方式:
暂无
2D轨道图
3D轨道图
轨道高度分析图
轨道倾角分析图
轨道综合分析图
查看轨道综合分析图
与全量物体交会距离演化趋势
与全量物体交会风险概率演化趋势